Theta_e
301 301 300 300 300 300 300 300 301 301 302 302 302 302 302 302 302 302 302 302 302 302 302 302 302 302 302 304 304 303 303 304 305 305 306 306 305 304 304 305 304 304 304 303 303 303 305 307 307 306 307 307 306 306 309 314 322 326 330 331 330 330 330 329 328 322 317 318 317 315 314 318 321 314 308 309 312 313 313 313 313 312 310 309 308 305 307 309
301 301 301 301 301 300 300 301 301 301 301 301 302 302 302 302 301 301 301 301 302 302 302 302 302 302 302 303 303 303 304 305 305 305 305 305 305 305 304 304 304 305 304 303 303 304 307 308 305 305 307 307 305 306 310 311 316 327 330 329 330 331 331 327 322 319 316 316 315 314 313 315 318 314 310 312 316 315 314 314 313 313 312 309 305 303 307 308
301 301 302 301 301 301 301 302 303 303 303 302 301 301 302 302 301 301 301 301 302 302 302 302 302 302 302 303 303 304 304 304 305 305 305 305 304 304 304 304 304 305 304 303 305 304 306 308 305 306 308 307 307 307 311 311 313 324 326 327 331 331 330 325 321 319 315 311 309 310 310 314 316 312 311 312 316 316 315 315 315 317 318 315 308 302 305 306
301 301 301 301 301 301 301 302 303 304 304 303 302 302 301 302 302 301 301 301 301 302 302 302 302 302 302 303 303 304 304 304 304 304 304 304 304 304 305 305 304 305 304 303 306 306 306 305 304 307 308 307 309 308 310 313 314 319 321 327 329 322 322 323 320 316 310 305 307 312 309 311 313 309 311 313 313 313 312 313 313 316 319 318 314 304 303 305
301 302 302 302 301 301 301 303 305 305 305 305 304 303 302 302 302 302 302 301 301 302 302 302 302 302 302 303 304 304 304 306 304 304 304 304 304 305 304 304 304 304 304 303 305 307 305 304 303 307 309 307 308 308 310 313 314 317 320 326 327 317 317 318 313 308 305 303 306 312 309 307 308 308 311 312 311 311 310 313 313 314 313 314 314 305 302 303
302 302 302 302 301 301 302 304 305 306 306 305 305 305 304 302 302 302 302 302 302 302 302 302 302 302 302 303 304 303 304 306 304 303 305 304 304 305 304 304 304 304 304 304 304 305 305 304 303 307 310 307 307 307 309 309 309 314 316 320 321 315 315 313 307 304 303 303 306 308 306 305 308 310 310 310 310 310 310 315 316 313 308 306 307 305 305 305
302 302 302 302 301 301 303 305 305 304 304 304 305 305 305 304 303 302 302 302 302 302 302 302 302 302 302 303 303 305 305 304 304 304 304 304 304 304 304 304 304 304 304 304 303 304 305 305 305 308 308 306 306 307 308 307 307 311 314 318 316 308 310 309 304 303 302 303 305 303 301 303 308 307 306 308 309 308 309 312 309 303 300 302 307 309 308 306
302 302 302 302 301 302 304 304 304 303 303 303 303 304 305 305 304 303 302 302 302 302 302 302 302 301 302 303 304 307 306 304 304 304 304 304 304 304 304 304 304 304 303 304 304 304 304 305 305 305 306 305 306 307 306 306 308 311 313 317 312 305 307 306 304 304 302 303 302 300 301 302 304 303 302 305 305 305 305 307 305 302 303 306 311 312 308 305
302 302 302 302 302 303 304 303 303 303 303 303 303 303 304 304 304 303 302 302 302 302 302 302 302 302 303 302 303 307 306 304 305 304 304 304 304 304 305 304 304 304 303 303 303 302 303 305 305 304 305 306 305 307 306 306 310 311 311 312 308 306 307 305 304 304 302 303 301 300 303 302 301 300 302 303 302 302 302 304 305 305 307 308 309 310 308 306
302 302 302 302 303 304 303 303 303 303 303 303 303 303 304 304 304 303 303 302 302 302 302 302 301 302 303 302 303 306 306 305 305 304 304 304 304 304 305 304 304 304 303 303 303 302 303 304 303 301 304 306 304 305 305 306 307 308 309 308 306 305 305 304 304 304 302 301 301 301 303 302 300 300 303 304 305 304 303 304 305 304 305 304 305 306 305 305
303 302 302 302 303 304 303 303 303 303 303 303 303 303 303 303 303 303 303 302 302 302 302 301 301 302 303 304 306 307 305 305 304 304 304 303 304 304 304 304 304 304 304 303 303 303 303 303 300 300 304 305 304 305 305 305 303 304 305 305 307 307 305 304 304 303 301 301 301 301 301 301 300 300 303 303 306 305 303 304 305 305 305 302 302 303 302 302
302 302 302 303 304 303 303 303 303 303 303 303 303 303 303 304 303 303 303 302 302 301 302 301 301 303 303 305 308 307 304 305 304 304 303 303 303 303 304 304 304 304 304 303 303 303 303 302 301 304 304 303 305 305 304 303 301 303 303 304 309 308 305 304 303 301 300 302 302 301 302 303 303 304 304 302 303 303 302 304 304 304 304 302 300 300 301 301
303 302 302 303 304 303 303 303 303 303 303 303 303 303 304 304 303 303 302 302 302 301 301 301 302 304 304 305 306 304 304 305 304 303 303 303 303 302 303 304 303 303 304 303 303 303 303 303 302 304 303 304 307 303 302 303 302 302 302 304 306 306 306 302 299 299 300 301 301 302 304 306 307 307 304 301 300 301 303 305 304 302 301 300 300 299 299 299
302 302 303 304 303 303 303 303 303 303 303 303 303 304 303 303 303 302 302 302 302 302 301 301 303 304 305 307 306 303 305 305 304 304 302 303 302 302 302 303 303 303 303 303 303 303 304 303 302 302 302 304 305 299 304 310 307 305 303 306 305 304 309 306 300 301 301 301 300 303 306 305 306 305 303 303 301 301 304 305 303 301 299 298 299 298 299 298
302 302 303 304 303 303 303 303 303 303 303 303 303 303 302 302 302 302 302 302 302 302 302 302 304 305 308 309 305 303 304 304 304 303 302 302 302 302 302 302 303 303 303 303 303 304 303 302 303 304 302 302 303 303 308 313 312 308 304 310 308 303 309 309 304 302 302 301 299 302 307 305 304 303 303 303 303 302 303 305 303 302 300 298 297 297 298 297
301 302 304 304 303 303 303 303 303 303 303 303 303 303 302 302 302 302 303 303 304 303 303 305 305 306 310 308 304 303 304 303 303 301 301 302 301 302 302 302 303 302 303 302 303 303 302 304 303 303 303 302 307 311 310 310 313 310 304 307 309 305 307 308 304 301 300 301 300 301 305 305 303 304 304 302 303 303 302 302 301 300 299 298 297 296 296 296
302 302 304 304 303 303 304 303 303 303 303 303 303 303 303 303 303 303 304 304 305 304 305 307 305 305 307 305 304 304 303 302 302 301 301 301 301 302 302 302 301 300 302 302 303 302 302 304 302 303 308 307 309 311 308 309 313 312 307 307 308 306 306 307 306 302 299 300 302 302 302 303 303 302 302 302 302 302 301 300 299 299 298 298 298 297 296 296
302 302 304 304 304 304 304 304 304 303 304 304 303 304 303 303 303 304 305 304 304 304 305 306 305 306 307 304 303 303 301 301 301 301 301 301 300 301 302 302 300 300 303 303 302 303 302 304 305 308 311 308 308 308 307 310 310 306 306 306 307 306 305 307 306 303 301 301 302 303 302 302 302 301 300 301 302 301 300 299 298 298 298 298 297 297 297 296
302 303 304 304 304 304 304 305 306 305 305 304 304 304 304 305 305 305 304 304 306 307 306 307 307 308 307 303 301 301 301 301 301 300 300 300 300 301 302 300 301 303 305 305 304 305 304 306 307 308 309 307 308 308 307 309 307 304 304 305 306 306 305 306 306 303 301 303 303 302 302 302 301 301 300 300 302 302 300 299 298 297 297 297 297 296 296 296
303 303 303 304 304 304 305 306 307 307 306 307 307 307 308 311 312 312 309 306 306 305 305 309 308 306 305 301 300 301 301 300 300 300 300 300 299 301 300 300 305 307 307 308 307 304 302 305 308 307 308 308 307 308 307 306 304 303 305 306 305 306 305 305 304 303 301 303 306 304 303 302 300 300 299 299 300 299 298 297 297 296 296 296 296 296 296 296
303 303 303 304 304 304 304 305 307 307 306 307 308 307 310 312 312 312 309 305 302 299 303 306 302 302 302 300 300 300 300 301 300 299 299 299 299 299 301 303 306 307 306 306 305 303 302 305 309 307 306 306 306 306 306 305 304 304 306 307 306 305 305 303 301 301 300 301 305 304 302 301 300 299 299 297 297 297 297 296 296 296 295 295 295 295 295 295
303 304 303 303 304 304 303 305 306 306 307 308 308 307 307 308 308 306 304 306 303 297 301 300 298 302 300 298 300 298 300 302 301 299 299 299 300 301 303 305 305 305 305 304 304 306 307 307 307 304 304 304 305 304 304 305 306 306 305 305 307 305 304 303 299 298 299 300 303 302 299 300 298 297 297 296 296 296 296 296 297 297 296 295 295 295 294 293
303 304 304 303 304 304 304 304 305 306 307 308 308 307 306 308 309 305 304 308 307 302 302 301 301 304 302 299 299 299 301 302 301 301 299 300 302 301 302 304 306 305 304 305 306 306 307 307 303 301 303 305 305 303 303 304 305 305 305 305 307 304 303 305 300 296 298 299 301 300 297 297 296 296 297 296 297 297 296 298 297 295 295 295 294 293 292 292
303 304 305 304 304 305 304 304 305 305 306 307 307 306 308 309 308 307 306 307 309 307 302 301 302 302 302 301 298 300 302 300 300 300 298 301 303 299 300 303 305 305 304 306 307 304 304 304 300 299 303 304 305 304 302 304 306 306 305 305 307 304 302 304 300 296 296 296 295 297 298 298 297 299 301 298 298 299 298 298 298 294 293 293 292 291 291 291
304 305 305 304 304 305 304 304 305 305 306 307 307 306 307 308 307 306 307 306 309 310 303 300 301 301 300 300 299 300 301 300 300 298 297 301 303 300 300 300 301 303 307 305 304 305 304 299 297 302 302 301 304 304 303 305 306 306 305 303 304 303 301 301 298 295 297 297 294 296 300 301 299 299 302 300 299 299 297 298 297 294 293 292 291 290 289 289
304 305 305 304 304 304 305 305 305 304 307 307 306 307 306 308 308 305 308 313 312 311 307 302 302 301 300 299 300 300 301 302 299 296 297 300 301 300 300 302 299 300 307 306 304 305 302 295 296 302 302 301 302 303 303 303 303 304 304 301 301 300 299 299 297 296 300 299 294 293 298 301 298 298 300 300 299 298 297 296 294 292 291 290 290 289 288 288
305 305 305 305 304 304 306 305 305 305 307 307 305 306 305 307 307 303 308 315 309 306 307 305 302 302 301 299 299 302 303 302 298 296 298 298 298 298 301 306 302 301 305 303 303 304 299 297 298 300 301 302 302 304 303 301 303 306 301 298 300 300 299 299 296 296 298 296 294 294 295 297 298 298 299 298 298 298 295 294 291 290 290 289 289 288 287 287
305 305 305 305 304 305 306 305 305 305 306 309 307 305 306 306 307 306 307 307 304 305 307 307 303 301 302 299 299 305 306 302 301 300 296 296 298 297 301 307 306 307 304 299 302 305 298 299 301 301 302 302 303 304 300 299 304 305 297 295 299 298 299 298 296 297 297 294 297 296 294 296 300 300 299 297 297 296 293 292 290 289 289 288 288 288 287 287
303 304 304 304 304 305 307 307 306 306 307 310 308 307 306 304 305 308 306 302 304 306 306 305 303 302 304 301 302 307 304 302 303 300 297 297 298 297 300 304 305 307 303 299 303 303 297 298 299 301 303 302 302 299 296 298 300 298 294 295 297 298 299 297 297 300 299 298 299 297 294 297 302 302 298 296 295 293 291 290 289 289 289 288 288 288 287 287
302 303 303 304 304 304 308 309 307 307 308 309 309 308 305 306 314 314 305 302 303 304 306 305 304 305 307 306 307 307 303 304 304 300 301 300 300 300 298 298 301 304 303 301 302 300 297 296 296 299 301 299 299 295 293 298 297 293 294 294 295 296 296 297 299 299 300 303 301 297 295 296 302 302 294 291 292 290 289 290 288 288 288 288 288 288 287 287
302 303 302 304 304 305 309 310 308 307 307 308 306 306 304 308 319 316 301 302 304 304 307 307 306 309 309 305 307 309 305 306 304 303 304 302 304 306 300 300 303 304 309 310 305 300 298 298 299 300 298 296 298 296 292 294 293 292 296 296 297 298 296 298 302 299 301 307 302 295 295 296 300 300 292 289 290 289 289 289 288 288 288 288 288 287 287 287
303 303 304 304 304 307 309 308 308 305 305 306 304 308 312 308 311 312 305 304 305 305 306 305 306 308 306 302 304 306 305 304 304 304 304 301 305 307 302 304 305 304 310 311 306 304 300 300 298 297 296 296 299 299 295 293 293 293 298 301 302 302 300 303 305 302 304 307 299 294 296 297 298 295 290 289 289 288 289 288 288 288 287 288 287 287 287 287
303 304 305 306 306 307 307 307 308 306 305 306 304 312 319 312 307 309 310 308 303 303 304 304 305 305 304 304 303 302 300 301 303 304 301 299 304 306 301 299 300 300 303 302 301 304 303 301 298 297 298 295 297 301 299 297 295 294 298 303 305 302 300 303 305 303 304 304 297 293 295 298 298 292 289 290 289 288 288 288 288 288 287 287 287 287 287 286
304 305 305 306 306 306 307 305 305 306 305 305 308 311 309 309 308 305 307 311 305 303 305 305 305 304 303 303 302 301 302 301 302 302 303 303 304 308 305 299 298 297 298 301 300 299 301 303 301 300 300 295 296 298 298 298 297 296 295 297 302 302 300 302 306 304 304 305 300 293 295 303 301 293 289 290 289 289 288 288 288 288 287 287 287 287 287 286
304 304 304 305 305 305 307 305 305 306 304 309 317 313 307 309 308 303 307 310 306 305 305 301 302 305 308 306 301 300 301 301 301 302 304 305 302 305 303 300 300 298 297 304 303 297 300 302 298 295 295 295 297 295 293 296 298 295 292 294 299 302 300 301 303 301 298 301 300 297 300 302 295 290 289 290 290 289 289 288 288 288 287 288 287 287 286 286
303 303 304 304 304 305 305 305 306 305 305 315 317 311 313 312 303 303 307 305 303 305 305 305 304 305 311 310 305 303 300 299 302 302 303 304 301 301 301 299 300 298 297 303 304 300 301 301 299 297 295 295 296 294 293 297 299 295 293 297 299 296 294 297 300 297 294 296 298 299 300 296 291 291 290 290 290 289 289 288 288 288 287 287 287 287 286 286
303 303 303 302 303 304 304 305 306 304 308 315 311 308 313 308 298 303 307 303 302 302 301 306 306 302 305 308 307 306 301 299 301 300 302 304 300 300 301 299 297 298 298 299 302 302 301 301 300 300 299 296 292 293 296 296 296 297 298 298 296 293 294 297 298 297 296 298 298 300 301 298 297 296 292 290 290 289 288 288 288 288 288 287 287 287 286 286
303 303 303 303 304 303 304 306 304 306 313 313 309 310 309 304 299 303 305 302 301 300 300 304 303 301 303 304 306 305 301 301 303 301 302 302 298 299 301 299 298 300 300 297 300 303 302 302 300 298 298 297 293 295 300 298 293 294 296 295 294 296 298 299 298 298 298 298 299 301 303 299 295 294 292 290 290 288 288 288 287 288 288 287 287 287 286 285
305 306 306 303 303 304 305 305 304 309 313 308 310 310 303 303 304 302 302 301 300 301 303 301 299 302 303 300 304 305 301 302 302 300 300 300 298 298 299 298 299 301 300 297 299 301 300 301 300 298 296 296 296 297 301 302 297 294 295 296 295 296 297 298 299 299 298 297 298 300 301 298 292 290 291 290 289 288 288 287 287 288 288 287 287 286 286 285
305 309 307 302 304 305 304 305 310 319 313 304 309 310 301 303 305 300 299 300 300 301 302 300 299 302 303 300 301 301 301 303 302 300 300 299 299 299 297 297 298 299 299 297 298 299 298 299 300 299 296 296 299 299 299 300 298 297 299 300 297 296 299 299 297 298 297 296 298 297 298 297 291 289 291 290 289 289 287 287 287 288 288 287 286 286 285 285
305 311 307 302 304 305 306 309 311 316 315 305 306 307 303 305 304 302 300 299 300 300 300 301 301 301 302 302 301 299 300 304 303 300 300 299 299 298 296 296 297 297 298 299 300 300 298 297 298 298 297 298 299 298 296 296 296 297 298 297 296 296 298 298 297 298 296 295 297 296 297 297 291 289 291 290 289 289 287 287 287 288 288 287 286 287 286 285
310 311 305 303 304 304 311 314 306 305 312 307 302 304 305 305 304 303 302 300 300 301 301 301 301 302 303 303 302 299 299 304 303 301 301 300 299 297 295 296 297 296 297 299 300 299 297 296 297 298 298 297 297 294 294 295 296 296 295 293 296 298 297 296 297 298 296 296 296 295 296 295 289 288 290 289 289 289 288 287 287 287 288 287 286 287 286 285
314 309 302 303 304 305 308 310 306 308 311 304 299 302 303 304 305 305 303 302 301 301 302 303 300 301 301 300 300 300 299 302 303 301 301 301 298 295 295 297 297 296 297 298 298 297 297 298 298 299 298 297 296 293 292 294 297 297 294 292 293 295 295 295 296 295 295 296 296 296 297 295 289 289 290 289 288 288 288 287 287 287 287 287 286 286 286 285
313 305 303 304 303 306 309 307 309 313 312 306 304 304 302 301 305 306 304 304 303 301 303 304 300 298 299 299 300 301 300 300 301 299 299 300 297 295 296 298 298 297 296 297 299 297 298 300 299 300 300 299 299 297 295 296 297 296 295 292 292 294 295 295 294 293 294 295 295 295 298 296 291 289 289 288 286 286 287 287 287 287 286 286 286 285 285 285
306 301 305 306 301 304 308 308 314 317 313 310 308 306 304 303 303 303 303 303 301 301 302 302 299 298 300 299 299 301 301 299 300 300 298 300 299 296 297 299 298 297 296 298 299 296 296 299 297 298 300 300 301 300 298 298 296 294 294 293 292 293 294 294 293 293 295 295 293 294 295 294 292 289 288 288 285 284 285 286 286 286 285 285 285 285 284 284
305 306 309 308 304 304 303 302 311 316 311 308 306 303 304 304 302 299 301 302 300 301 301 300 300 300 300 300 301 303 303 300 299 300 299 301 301 297 297 299 298 296 298 300 297 294 296 299 296 296 298 299 299 298 296 296 296 296 296 293 292 292 291 292 293 293 294 293 291 292 292 291 291 289 287 287 285 283 284 284 285 286 285 284 285 285 284 283
306 308 306 305 305 307 305 303 308 310 304 304 304 301 302 305 302 299 300 301 300 301 302 301 301 300 300 301 301 302 302 300 299 299 298 298 299 297 298 300 299 296 298 299 296 296 299 300 297 296 296 296 297 295 294 295 295 296 297 294 292 292 291 292 293 292 291 291 291 291 291 290 290 288 285 286 285 283 283 283 283 284 285 284 284 285 283 282
301 302 301 301 302 303 303 303 306 307 305 305 304 301 302 305 303 299 299 299 300 300 300 301 301 300 299 299 300 300 301 301 300 299 298 297 297 298 299 299 297 296 298 299 297 296 297 298 297 296 295 294 295 295 294 294 294 295 294 292 291 291 291 292 291 290 290 290 290 290 289 289 288 286 285 285 284 283 282 282 281 283 284 284 284 284 282 281
300 301 298 298 301 301 299 300 303 306 306 307 306 302 302 303 301 299 298 299 301 300 299 301 302 301 300 299 299 300 300 300 300 299 299 297 296 297 299 300 298 296 297 299 296 294 294 297 298 295 294 293 294 295 294 293 295 294 290 288 289 290 291 290 289 289 289 289 289 288 288 287 287 285 284 284 284 282 282 281 281 282 283 283 283 283 281 280
305 306 302 302 304 301 300 302 306 309 307 305 304 301 300 302 301 299 297 298 302 301 299 302 302 300 301 301 300 299 298 297 298 298 297 296 297 298 298 299 298 298 298 297 295 293 293 294 295 294 294 293 293 295 294 293 294 293 289 288 287 288 289 289 288 288 287 287 287 287 287 287 286 285 284 284 283 282 281 281 281 281 281 281 282 281 280 279
301 300 300 307 306 300 301 304 304 310 310 304 302 301 300 300 299 298 297 297 300 300 299 301 301 300 300 301 298 297 296 295 295 296 295 295 296 297 297 296 295 297 298 296 294 294 293 293 294 294 294 294 294 293 292 292 291 291 289 288 287 287 288 287 287 287 286 286 286 287 287 286 286 285 284 284 283 282 281 280 280 280 280 281 281 280 279 279
300 297 298 306 305 299 301 304 302 307 306 299 298 300 300 299 298 297 297 297 297 298 298 298 298 298 300 299 296 294 294 294 294 293 293 293 294 294 294 294 293 294 297 296 293 292 292 293 294 293 294 296 294 291 290 291 290 291 289 286 286 287 286 285 285 284 284 285 286 287 287 285 284 284 284 284 283 282 281 280 280 280 280 280 280 279 279 278
Wind_Speed
8 8 10 10 11 10 10 9 10 11 11 11 10 9 9 9 8 7 7 6 5 4 3 2 2 2 2 1 1 1 2 3 4 6 5 2 4 7 9 9 9 8 8 6 2 4 5 4 4 5 5 3 2 0 1 1 2 2 2 2 3 3 3 3 4 4 2 3 3 1 2 4 3 2 1 1 1 3 3 4 4 5 8 8 6 4 2 6
8 8 9 10 11 10 10 9 9 10 10 11 11 10 9 9 8 8 7 7 6 5 3 3 2 2 2 2 3 2 3 4 6 6 3 1 5 7 7 8 8 6 6 4 2 7 6 3 5 5 4 1 1 1 0 1 1 2 2 1 3 4 4 4 4 4 2 3 3 3 2 4 4 2 1 2 3 2 4 5 3 6 11 11 10 8 6 11
8 8 9 10 11 11 10 9 8 8 8 9 10 10 10 9 9 8 7 7 7 5 3 3 3 3 3 3 3 2 4 5 6 3 2 1 4 6 7 9 7 5 5 2 1 4 5 6 9 6 4 1 1 1 1 0 1 2 3 2 5 4 4 4 5 5 4 2 3 4 2 3 5 2 1 3 4 4 6 6 4 7 12 11 9 10 11 15
8 9 10 11 12 12 11 10 8 7 7 8 8 9 10 10 9 8 8 7 7 5 4 3 3 3 2 3 2 2 3 6 3 1 2 3 4 5 7 8 6 5 4 0 2 3 4 7 8 5 3 1 3 2 0 2 1 1 3 4 4 3 3 4 5 5 4 3 3 2 1 3 4 2 2 2 4 8 8 8 9 11 12 10 5 9 13 15
8 10 10 11 12 12 12 11 10 9 8 7 7 8 8 9 10 9 8 8 7 5 4 3 3 2 2 2 3 1 4 5 2 1 2 3 4 6 7 7 5 4 3 1 3 4 5 6 5 5 3 1 1 2 2 3 2 2 3 5 4 3 3 5 3 4 3 2 2 1 2 5 1 1 4 5 6 10 8 7 11 12 11 7 5 9 11 12
9 10 11 12 13 12 12 11 11 11 10 8 7 8 8 8 9 10 9 8 6 5 5 3 3 1 1 3 4 1 4 1 2 0 2 3 4 6 6 6 5 4 3 2 4 4 3 4 4 2 2 1 2 3 4 2 1 2 4 3 3 4 4 4 1 3 3 3 3 3 2 1 1 4 4 7 12 15 9 4 6 7 6 4 6 9 9 12
9 10 11 12 13 12 11 11 12 12 11 10 8 7 7 7 8 9 9 7 6 5 5 4 3 2 2 4 4 3 4 2 2 1 2 4 5 5 5 5 5 5 2 3 4 4 3 4 1 3 3 2 3 4 4 2 2 2 4 4 4 3 5 4 0 3 3 4 6 1 2 2 5 6 1 6 16 19 12 4 4 2 1 3 5 8 10 12
9 10 11 13 13 12 12 12 12 12 12 11 8 6 7 7 6 7 7 7 6 6 5 5 4 3 4 5 4 3 2 3 1 1 2 5 6 5 4 4 6 5 3 1 3 4 3 4 4 3 2 2 4 3 2 2 2 3 5 4 2 2 5 5 3 4 3 5 4 1 4 7 7 3 3 13 19 17 11 6 5 3 1 4 6 8 10 10
10 11 12 13 13 12 13 13 13 13 11 10 8 6 5 5 6 6 6 7 6 6 6 6 5 5 6 5 5 3 3 2 1 1 3 5 6 5 3 3 5 5 4 2 2 5 3 3 4 4 3 3 4 3 1 1 3 5 5 3 3 4 5 4 4 4 2 4 2 2 8 7 4 2 8 19 18 12 7 8 8 6 6 8 8 9 10 10
10 11 12 12 12 13 13 13 12 10 8 7 6 4 3 4 5 6 7 7 7 7 6 7 6 7 7 5 6 1 2 2 1 2 4 6 6 4 3 2 3 5 4 3 1 4 3 3 4 4 4 2 4 3 2 4 3 3 3 4 5 5 5 2 4 3 1 4 4 5 8 6 3 2 9 14 7 2 2 6 8 5 10 11 9 8 9 10
10 11 11 12 12 11 11 10 7 3 3 2 2 2 3 4 6 7 7 7 7 7 7 7 7 8 6 4 6 3 1 2 0 3 4 6 5 4 3 2 2 4 4 3 0 2 2 4 6 4 1 2 3 1 2 4 1 1 1 5 7 6 6 3 4 5 2 3 5 5 6 5 1 2 15 14 2 1 1 6 7 6 10 11 9 9 6 9
9 10 11 11 10 9 8 6 3 2 2 2 3 4 5 6 8 8 8 7 7 7 7 7 7 8 4 4 3 4 0 2 0 3 4 6 6 6 3 2 2 3 2 2 1 2 2 4 7 4 2 3 2 1 2 2 2 1 2 4 8 7 7 5 2 3 0 1 3 3 4 5 4 11 20 10 2 1 3 7 9 7 9 9 8 7 5 9
9 10 10 9 7 7 6 4 4 5 5 5 5 6 7 8 9 8 8 7 6 7 7 8 8 7 4 1 3 4 1 1 0 3 5 7 8 7 3 3 2 3 3 2 2 2 2 4 7 4 1 4 1 1 2 3 2 2 2 1 6 7 6 5 1 2 1 1 0 2 5 6 8 17 15 3 2 0 4 8 9 8 8 8 8 6 6 9
8 9 9 7 5 6 5 5 6 7 7 7 7 8 9 9 9 8 8 7 7 7 7 8 8 5 3 1 3 3 2 1 1 4 7 7 8 6 1 2 4 4 3 2 3 1 1 5 7 4 2 2 1 1 2 5 3 2 2 1 2 2 5 6 0 1 1 2 3 4 3 8 12 16 7 1 2 3 6 10 9 9 8 8 8 7 7 8
7 7 7 5 4 5 5 7 9 9 9 9 9 9 9 9 9 8 8 8 8 8 8 8 6 3 2 2 2 2 3 1 1 6 8 8 8 4 2 4 4 3 2 2 3 4 6 7 6 4 0 1 2 2 2 4 3 2 2 3 2 2 5 8 2 2 2 2 5 3 3 9 15 14 1 3 3 5 6 11 9 11 10 9 8 7 8 8
6 6 5 4 4 4 6 7 9 9 9 9 9 9 9 9 8 8 9 10 10 9 8 6 4 4 2 1 0 1 1 0 3 6 6 7 7 5 6 5 1 1 2 4 7 7 6 5 4 2 1 1 3 3 2 4 4 2 0 4 4 3 4 7 2 0 1 1 3 0 3 9 12 9 1 5 3 3 6 12 13 14 13 12 9 8 9 9
5 4 3 4 3 5 6 7 8 8 8 8 8 8 8 8 8 9 11 10 9 6 5 5 4 3 1 1 0 1 2 2 5 7 5 6 6 6 5 2 3 4 5 6 6 4 3 4 1 0 2 2 2 3 3 4 4 2 1 2 4 3 3 5 4 3 3 1 2 1 4 13 17 15 10 2 2 6 10 14 15 14 13 13 10 10 10 10
4 2 1 3 4 6 7 8 8 8 8 8 8 8 8 9 9 9 9 7 4 2 4 4 4 3 2 1 1 3 4 6 8 6 4 5 6 4 4 2 2 4 5 4 1 1 2 3 2 1 3 2 1 4 1 4 3 3 3 3 4 3 4 5 5 3 3 0 4 2 7 18 21 20 18 6 4 8 12 13 14 14 14 13 11 11 11 11
3 1 2 3 4 6 7 8 8 9 9 9 10 9 8 8 6 5 5 5 2 0 0 1 2 2 2 1 2 5 7 8 6 2 2 6 5 1 4 5 3 3 3 1 2 1 1 2 2 1 2 3 4 6 7 7 6 4 4 4 5 6 6 6 5 3 2 2 6 6 10 18 20 19 19 8 4 8 12 12 12 12 13 12 11 12 12 12
2 1 3 4 5 6 6 7 9 10 9 8 6 5 4 3 3 2 1 1 3 1 1 4 3 1 2 2 4 7 6 4 2 1 5 8 4 1 3 5 5 4 2 2 2 2 2 1 3 6 7 8 8 8 6 3 4 3 2 4 5 6 8 5 3 3 1 2 7 6 8 16 18 19 20 12 5 9 12 13 14 12 12 11 11 13 12 13
2 1 3 5 6 6 5 6 7 8 6 2 2 2 2 2 1 3 3 2 1 3 4 2 3 1 3 2 4 5 2 1 1 2 6 8 3 1 2 4 4 1 1 1 2 3 2 2 7 9 9 7 5 5 4 3 3 2 3 5 4 5 9 6 1 3 0 2 5 2 5 16 19 18 19 13 9 13 12 11 14 13 12 10 11 14 13 11
3 3 3 5 8 7 5 5 5 6 3 2 2 1 2 3 2 2 1 1 3 3 4 1 1 2 3 1 2 2 2 2 2 1 6 8 4 1 2 3 4 2 2 1 1 4 2 6 10 6 4 4 4 4 5 4 3 2 2 2 4 4 5 7 2 3 0 2 4 2 4 16 21 19 19 15 11 12 11 10 13 12 11 11 10 10 11 11
4 4 3 6 9 8 6 5 5 4 2 2 2 1 2 1 2 3 2 1 4 4 3 3 1 2 3 1 0 2 2 1 2 4 8 6 3 2 1 3 2 1 2 2 4 1 2 7 7 3 7 6 4 3 5 3 2 3 3 2 5 3 1 4 3 3 2 3 4 5 5 12 17 16 16 13 9 8 7 9 11 8 9 13 11 10 11 14
5 5 5 6 9 9 6 5 4 3 2 3 4 2 1 1 3 3 2 1 3 4 1 0 1 2 1 0 1 2 1 1 2 3 7 5 2 1 2 3 2 1 2 4 7 5 8 6 3 5 4 6 4 3 5 3 3 4 6 6 7 5 4 6 4 4 3 2 3 6 7 7 8 10 11 6 4 5 4 5 9 7 7 10 11 11 10 11
5 6 6 6 8 9 7 4 3 3 3 2 2 0 2 1 3 2 3 3 2 4 2 1 0 1 2 0 2 0 1 1 3 3 5 4 3 0 1 2 2 2 3 3 5 6 9 4 5 5 2 4 5 4 5 7 3 4 6 10 11 8 6 6 4 5 4 3 2 3 5 6 3 4 9 8 7 9 5 8 12 13 12 12 13 13 13 12
4 6 6 7 8 9 7 3 2 3 3 2 1 2 2 1 2 2 4 4 2 5 3 0 0 1 2 1 3 1 2 2 2 1 3 3 2 1 0 1 1 1 4 4 2 4 3 1 2 4 5 4 4 5 5 7 3 3 4 7 8 5 4 5 3 1 1 3 3 2 1 7 4 1 8 12 12 13 10 14 16 16 16 15 14 15 15 15
3 5 6 7 8 9 6 1 3 5 2 2 4 4 1 1 1 2 3 5 3 2 1 1 0 1 2 2 3 1 1 3 1 2 3 3 2 1 1 3 1 1 3 2 2 3 2 2 2 3 4 4 4 5 5 9 6 3 3 3 4 5 5 5 2 2 3 3 3 2 4 5 6 4 10 10 9 10 12 17 19 18 18 17 16 17 17 17
2 4 6 6 9 10 5 1 3 5 2 1 5 6 4 1 0 1 4 3 2 0 1 2 0 1 2 2 3 2 3 4 2 2 3 3 2 2 1 4 5 4 3 4 4 5 2 3 4 4 3 3 5 4 6 10 5 4 3 4 4 5 4 4 3 2 2 4 5 3 5 2 6 6 5 5 7 11 14 17 18 19 19 19 18 18 17 16
1 3 5 7 10 11 4 2 3 4 2 2 3 7 6 1 1 4 5 1 2 0 0 1 1 1 4 3 3 3 3 3 1 4 4 2 1 3 0 4 5 2 3 4 6 6 1 3 5 6 4 5 3 2 2 6 3 2 4 4 4 5 3 3 3 1 2 3 7 4 7 4 5 5 5 7 7 11 12 11 12 14 15 16 17 17 16 15
2 2 5 9 12 10 4 2 2 2 3 3 2 5 5 1 4 6 2 2 1 1 1 0 0 2 6 5 5 4 2 2 3 4 3 1 2 4 2 2 5 3 2 2 5 6 2 1 3 3 3 4 3 3 2 2 2 3 4 3 4 4 3 3 1 2 3 4 6 4 7 5 3 2 5 7 6 8 9 8 11 13 14 16 15 14 15 14
5 5 7 10 11 8 3 2 2 2 3 3 4 4 2 2 5 6 1 3 1 2 1 2 2 3 7 5 4 5 4 4 5 4 3 2 4 5 2 0 2 3 3 4 4 5 3 1 2 1 1 4 5 4 3 3 3 3 3 2 3 3 3 4 3 3 1 5 5 3 4 3 3 2 4 5 4 7 7 9 13 14 15 15 13 13 14 13
8 8 8 9 9 5 2 2 3 3 3 5 4 3 4 3 2 1 3 4 2 2 1 1 3 3 5 3 1 4 4 3 4 3 2 3 3 2 1 1 1 3 5 3 3 6 4 3 2 1 1 3 4 3 3 3 4 3 2 3 2 4 3 3 4 1 2 5 3 2 2 1 2 1 4 5 7 8 7 7 10 12 13 12 12 13 12 12
9 9 8 7 7 5 4 4 3 2 3 4 3 4 6 4 1 3 3 3 2 2 1 0 3 2 3 4 2 3 2 1 3 3 0 1 2 3 3 1 0 1 2 3 3 5 5 3 2 2 1 1 3 3 1 2 2 2 2 2 2 0 2 4 4 3 5 5 2 2 2 2 1 3 3 5 7 5 5 7 7 9 10 10 10 12 12 14
8 7 6 6 6 5 4 4 2 2 4 3 4 5 4 0 4 3 2 3 2 3 2 0 4 4 3 2 3 3 1 1 3 3 2 3 3 4 4 4 3 1 1 3 3 1 3 5 2 0 1 0 2 3 2 2 2 3 3 3 3 2 2 4 4 5 6 5 4 1 1 3 2 4 4 4 5 6 7 8 8 8 9 9 9 11 14 15
8 7 6 6 5 4 3 2 0 2 4 3 6 5 2 3 4 1 2 4 2 3 3 0 2 4 4 3 3 2 1 2 4 4 3 3 2 2 2 4 4 2 2 3 2 1 2 5 4 2 2 1 2 1 3 3 1 1 1 3 1 3 3 3 3 4 3 3 3 2 2 2 4 6 5 4 5 8 9 9 10 12 12 11 11 13 14 13
9 8 7 6 5 3 3 2 1 3 4 5 6 3 3 4 2 2 2 2 1 2 5 4 4 4 4 4 3 4 2 1 3 4 2 0 0 1 1 1 2 2 2 1 2 1 2 6 3 1 2 1 3 1 1 1 0 1 1 2 4 4 4 1 3 1 2 1 3 2 2 1 3 3 1 7 10 12 13 12 12 12 13 13 12 12 12 12
7 7 6 7 6 3 3 2 2 4 4 6 5 2 4 2 1 3 2 1 0 0 3 3 2 2 2 3 4 5 4 2 2 3 3 1 0 1 0 1 1 1 0 0 2 1 0 6 4 3 0 1 2 1 2 1 1 2 2 4 3 1 3 2 1 3 2 3 4 1 3 3 1 3 6 16 17 17 17 15 14 13 13 13 11 11 11 11
4 5 5 8 8 3 2 2 3 4 5 6 2 2 1 1 0 1 1 0 1 1 4 0 2 1 1 1 3 4 4 4 3 3 3 2 1 2 1 2 0 1 2 2 2 1 2 3 5 1 2 1 2 1 3 3 1 2 3 3 1 0 2 2 1 3 4 5 5 4 6 4 1 3 9 15 16 17 16 14 14 15 14 13 11 12 12 12
2 3 3 7 7 3 2 2 3 4 6 3 1 1 0 1 1 0 0 1 0 2 2 1 1 2 1 1 2 4 3 2 3 3 1 1 2 3 3 2 2 2 3 1 1 2 2 1 5 2 3 0 3 3 3 4 2 2 2 3 2 2 3 1 1 1 2 6 7 6 7 3 1 2 7 10 11 13 13 13 13 13 12 11 10 11 12 12
2 2 2 5 7 3 2 2 3 5 5 1 3 1 0 2 1 0 2 2 0 1 1 2 2 1 2 1 1 2 2 1 1 1 1 1 2 3 5 3 3 4 4 1 1 2 0 1 4 3 1 1 2 0 1 3 3 4 3 4 4 2 1 1 1 1 1 4 5 5 6 2 1 1 3 6 8 9 10 11 11 11 9 9 10 9 9 10
3 3 2 5 6 3 2 5 4 3 3 1 1 1 0 0 1 1 2 1 1 0 1 3 2 1 1 1 1 1 1 2 1 0 1 1 1 3 4 2 2 4 3 3 2 2 1 1 3 6 5 4 4 3 2 1 2 2 1 2 3 2 1 3 4 0 1 2 2 5 8 3 1 1 2 4 5 5 7 9 9 11 9 8 10 9 8 9
5 2 2 6 6 2 4 5 2 1 3 1 0 1 0 1 2 1 2 1 1 1 2 2 2 1 2 1 1 1 1 2 1 0 1 1 1 3 3 4 4 2 1 3 3 1 1 1 2 5 5 6 7 5 3 3 5 5 3 1 2 1 3 0 5 4 3 3 2 3 7 3 2 1 2 4 4 4 5 7 8 10 8 8 10 9 8 8
3 2 1 7 7 2 6 4 3 3 2 1 0 1 0 1 1 0 0 1 2 1 2 1 1 1 1 1 0 1 1 2 2 1 1 2 1 2 5 7 4 2 2 2 2 1 2 2 2 4 5 5 4 3 3 2 4 4 2 2 2 1 1 4 5 4 4 5 2 3 5 1 2 2 1 4 6 5 4 7 9 9 9 9 10 10 8 7
2 2 0 7 7 2 4 2 0 2 2 2 3 3 3 1 1 1 1 1 1 1 1 1 0 0 0 1 1 2 2 1 1 0 1 0 1 0 4 8 8 5 3 0 1 2 1 1 2 4 6 6 5 4 3 2 3 2 1 2 3 2 3 3 2 2 1 2 4 3 5 1 3 2 2 5 7 8 7 7 9 9 10 11 10 9 9 8
2 1 1 7 10 6 4 3 4 3 1 2 4 4 4 2 1 1 1 1 1 1 1 1 0 0 0 0 0 2 1 0 2 2 2 1 1 1 5 8 9 5 3 4 3 1 1 1 1 1 2 4 5 5 5 6 6 1 2 3 3 2 2 2 1 2 2 2 5 3 6 4 1 2 7 8 10 12 12 11 10 8 10 11 9 8 10 10
2 1 2 5 8 7 3 1 3 4 2 3 3 2 3 2 1 1 1 2 1 0 1 1 1 1 2 2 2 3 3 1 2 1 2 2 2 3 4 4 5 6 7 6 3 2 2 1 1 3 4 4 5 7 6 6 6 6 5 4 2 1 1 2 1 2 3 3 3 4 4 7 6 4 8 9 10 12 13 15 14 11 10 11 10 10 11 11
2 2 1 0 2 4 4 4 4 3 2 3 3 1 2 3 3 1 1 1 0 0 2 1 2 2 2 3 3 1 3 4 2 1 1 1 2 4 5 2 3 8 9 6 3 4 3 2 1 3 4 6 7 9 9 7 5 6 7 5 2 1 2 5 2 3 2 2 4 3 4 7 8 6 8 10 9 10 12 14 16 14 11 11 11 12 12 12
2 2 1 1 1 1 3 3 3 4 4 3 3 1 2 3 4 2 1 1 1 1 2 2 4 4 2 3 1 1 4 4 3 2 0 1 3 5 6 3 3 8 8 5 5 4 4 2 3 1 4 6 8 10 8 6 4 3 3 6 5 3 3 4 1 4 2 3 7 8 8 9 8 5 7 8 8 9 10 11 14 14 12 14 14 12 12 12
2 3 1 2 3 2 0 1 1 5 6 4 2 2 2 3 4 3 1 2 3 3 3 3 5 6 4 2 1 1 3 3 3 4 1 2 4 3 3 3 3 5 6 5 4 3 4 2 3 3 6 6 7 7 4 3 4 4 2 4 5 5 2 2 1 5 4 6 9 10 12 11 6 3 6 7 6 7 8 9 12 13 15 18 14 10 11 12
2 3 1 3 4 1 1 2 2 4 4 3 3 2 2 3 3 3 2 3 3 4 4 3 5 7 4 2 3 2 1 1 3 6 2 2 4 0 0 1 1 4 6 4 3 3 3 2 2 3 5 6 3 1 3 5 7 5 1 5 5 5 4 3 3 5 6 8 9 9 12 10 2 3 6 6 5 7 9 11 12 12 16 18 12 9 10 11
3 3 4 6 4 3 3 3 2 4 3 3 2 2 2 3 1 1 2 3 2 2 2 2 5 5 2 4 5 3 3 3 6 9 5 2 3 2 0 0 2 2 5 3 3 4 4 2 3 5 5 6 2 3 7 4 2 1 2 6 7 5 4 4 6 7 8 11 13 11 8 6 5 8 10 8 6 8 11 13 13 14 16 14 9 9 11 10
4 3 4 6 3 3 3 2 3 4 2 2 2 2 2 2 1 1 2 2 3 3 1 3 3 1 2 6 6 3 5 6 6 6 3 3 2 1 2 3 2 1 1 0 2 2 2 2 3 3 3 5 3 7 8 2 4 3 2 3 4 2 4 7 8 9 10 9 8 7 5 7 9 12 14 13 10 10 12 12 13 17 17 11 7 10 11 11
Wind_Direction
302 296 294 297 298 296 291 282 272 267 263 261 259 253 248 245 243 240 245 247 249 266 287 299 328 338 333 250 240 28 357 346 343 349 6 4 329 328 330 334 334 329 326 325 290 180 145 133 160 140 130 118 25 2 168 2 86 81 92 182 233 207 212 194 193 198 191 285 265 240 198 194 262 251 211 7 279 255 240 237 242 263 252 237 228 203 197 173
307 306 305 307 306 304 300 293 282 271 261 258 256 252 249 244 238 234 238 243 251 261 284 303 328 337 326 271 250 309 329 339 336 338 0 303 310 322 327 335 331 327 326 323 231 181 158 163 165 116 86 82 358 1 57 323 127 131 132 213 233 199 222 205 194 208 214 274 267 265 224 199 231 211 125 252 262 302 264 254 218 250 258 247 227 211 200 173
311 312 311 311 311 312 308 302 292 282 272 263 255 251 249 246 242 236 236 240 247 255 276 294 313 330 329 274 242 301 331 357 343 339 49 302 314 326 330 335 332 335 329 318 191 178 178 175 155 115 58 67 321 11 51 302 206 184 147 232 247 214 248 239 215 232 226 243 273 272 229 201 239 218 137 233 275 280 244 249 221 235 252 246 217 193 189 178
315 315 315 315 315 316 314 310 302 291 286 278 267 255 247 246 245 240 237 238 240 249 257 262 287 318 322 271 224 275 359 23 351 162 74 327 323 329 330 337 343 353 348 328 129 118 127 136 130 93 77 153 319 12 170 243 206 174 161 209 233 191 259 251 219 238 230 204 232 250 353 268 252 199 188 190 280 277 244 230 228 233 243 241 200 177 183 179
316 317 318 319 318 317 315 311 306 299 289 280 272 263 250 243 240 237 234 232 232 235 238 241 257 291 315 238 198 250 40 40 312 186 21 327 323 326 333 346 357 3 18 110 144 116 109 109 88 57 75 191 315 41 241 239 140 177 215 215 210 163 242 259 218 231 208 169 212 183 275 271 266 186 214 189 226 259 248 219 222 230 245 242 178 177 183 183
316 317 319 319 319 316 313 308 304 299 292 281 267 260 252 242 234 231 228 226 225 218 223 226 226 251 287 172 176 133 82 80 273 113 338 329 322 324 341 348 359 5 27 107 138 125 105 71 64 81 68 2 194 194 248 275 96 230 263 261 240 188 225 262 213 233 194 159 208 206 252 298 339 276 231 196 224 246 245 192 204 233 256 242 166 172 185 194
316 318 321 321 320 314 309 304 299 295 289 283 271 258 249 243 234 228 221 218 214 206 212 208 202 202 155 157 160 85 79 246 273 101 318 347 330 325 347 347 360 359 9 115 135 135 105 82 117 161 99 10 221 212 244 311 22 220 258 284 262 200 219 250 287 242 192 201 225 201 330 279 244 269 315 219 233 245 249 204 191 246 261 180 169 181 195 200
317 320 324 323 319 314 309 303 298 292 284 277 273 261 244 238 228 222 214 207 201 196 200 193 184 166 154 155 141 52 5 253 232 102 321 347 332 327 337 347 5 357 8 103 158 161 134 132 180 165 118 253 201 188 236 325 356 211 231 266 259 222 244 273 296 260 219 231 245 60 267 253 240 255 299 253 246 248 251 246 235 240 210 187 200 205 203 207
318 323 327 323 320 319 314 307 301 293 282 270 265 257 240 226 209 204 198 192 185 186 188 178 174 160 157 143 105 54 278 214 86 329 325 333 328 329 317 343 7 3 26 32 158 158 161 182 196 181 185 205 175 188 218 214 257 222 215 262 276 287 290 294 280 251 229 251 177 200 254 264 267 295 268 251 250 259 245 246 250 234 240 231 221 213 206 211
320 326 328 327 326 324 317 310 303 289 274 259 252 248 227 199 184 176 173 174 173 178 173 169 173 159 156 128 90 96 237 137 46 328 338 332 329 322 302 319 358 9 32 32 101 150 168 201 184 152 160 144 160 193 170 174 207 203 205 272 265 284 301 275 264 264 276 269 188 214 266 280 294 334 265 247 234 271 198 237 255 229 242 242 231 225 213 216
322 330 333 334 331 324 320 320 314 286 248 231 219 196 153 153 159 160 163 164 164 165 161 164 164 156 153 108 111 180 222 109 26 346 346 339 341 324 310 285 315 7 20 28 75 191 229 209 164 117 144 168 164 199 235 202 153 122 289 301 285 306 302 246 261 288 300 273 191 191 267 279 329 223 247 251 185 103 228 258 264 230 243 247 238 234 217 225
325 334 338 335 330 331 341 350 13 92 116 117 124 125 127 137 146 152 155 154 153 152 152 154 155 156 134 69 145 208 227 109 49 4 346 341 352 342 330 263 268 352 342 356 289 231 287 220 159 125 242 170 153 286 240 212 64 30 35 314 299 336 317 264 259 294 244 244 183 158 284 263 206 229 245 262 56 51 301 268 266 246 247 253 246 241 224 233
329 340 339 335 338 354 10 29 62 87 102 110 118 118 121 128 134 142 145 143 140 140 147 151 155 152 115 56 217 214 192 131 95 354 337 337 349 342 317 239 266 314 294 283 261 250 286 218 163 147 174 126 207 252 118 48 34 287 44 29 307 341 315 284 28 12 66 248 324 77 297 262 225 243 252 296 56 26 299 268 266 261 254 256 248 243 239 237
336 341 337 343 6 25 42 68 81 91 98 105 111 112 117 121 126 134 133 133 132 137 148 148 155 144 106 238 231 193 205 202 256 323 335 335 346 346 291 250 296 290 276 255 241 240 140 172 142 110 84 101 242 158 52 8 17 294 329 51 348 326 287 298 355 50 338 315 29 89 264 270 263 267 260 179 174 174 265 270 271 269 261 259 252 244 247 239
343 344 342 1 31 56 75 87 91 94 96 101 105 107 113 116 121 126 127 134 131 134 140 140 155 134 73 286 248 178 222 213 301 331 340 340 352 358 310 315 303 266 246 214 169 127 124 137 113 83 267 329 48 60 341 341 11 20 310 303 334 206 269 306 288 195 240 309 28 97 242 277 275 280 287 114 121 140 246 270 271 271 265 260 256 246 248 248
352 350 359 30 52 78 90 95 93 95 98 101 102 104 108 111 117 121 127 131 122 124 129 128 147 122 89 304 315 138 244 239 346 337 334 337 349 346 321 322 350 131 173 152 132 120 108 103 80 77 183 13 69 78 13 345 335 8 9 264 277 237 288 319 316 235 238 298 6 63 242 278 277 278 100 105 107 157 251 271 268 268 269 265 261 251 250 255
0 350 18 61 77 93 99 99 98 100 102 102 105 106 108 112 118 126 133 131 124 123 116 117 119 101 67 305 40 319 321 312 322 322 317 335 342 342 339 359 77 68 105 125 127 117 53 52 73 292 48 46 97 89 29 320 297 330 13 260 260 244 272 304 302 349 32 151 268 295 240 262 271 276 282 267 204 249 259 268 269 269 270 266 263 257 252 251
4 354 82 106 112 111 108 106 104 104 105 105 105 106 110 117 122 134 144 144 141 92 78 97 89 69 305 336 337 289 302 300 311 313 304 338 342 354 28 68 81 58 68 67 57 65 0 31 84 324 14 17 72 103 163 245 226 254 271 270 290 272 232 256 274 310 30 190 234 271 263 266 274 280 285 277 195 245 259 263 270 272 271 270 268 262 256 253
4 355 153 149 140 128 118 114 111 110 111 107 109 114 114 114 117 137 146 136 149 19 69 212 117 134 230 296 305 303 304 294 308 330 348 352 340 6 57 45 56 82 73 6 314 18 50 33 58 289 268 239 204 174 204 220 198 218 237 230 268 283 259 237 245 265 16 313 257 234 253 270 280 283 287 285 190 236 260 267 271 270 270 270 267 262 257 255
352 308 178 176 164 146 129 122 122 124 119 104 105 115 105 84 53 349 315 145 177 147 135 196 170 154 261 300 315 326 318 272 258 65 17 358 353 94 47 24 34 63 90 190 277 359 79 343 252 231 231 225 217 203 202 197 175 189 211 232 243 259 275 257 227 284 52 291 264 231 253 272 276 279 283 287 267 258 265 271 272 267 268 267 264 265 261 255
318 275 198 194 182 166 149 140 138 144 146 84 35 64 130 157 11 325 309 294 242 60 53 181 172 245 275 274 320 344 348 287 307 65 14 0 26 91 326 23 54 32 294 210 263 345 60 259 247 233 229 222 206 187 161 132 145 175 208 256 271 230 263 278 292 309 337 204 262 247 287 280 278 279 282 288 285 272 266 263 269 268 267 265 260 264 265 265
285 270 226 207 193 181 173 164 157 161 185 302 348 58 172 195 221 224 213 299 301 28 43 55 107 306 295 269 314 9 61 5 326 299 360 1 25 20 306 52 98 224 316 68 283 343 4 250 252 230 174 120 86 130 145 143 150 163 162 250 285 231 267 294 332 343 15 196 267 313 309 283 283 285 283 282 269 264 259 248 259 268 273 276 275 281 295 306
272 264 242 215 196 187 183 179 178 178 205 293 317 275 231 242 200 181 110 77 296 334 37 51 69 303 333 1 315 60 61 4 262 294 348 8 25 35 91 90 124 195 0 151 181 273 264 250 255 180 131 117 80 105 125 122 154 187 163 189 264 248 276 281 298 327 244 215 276 299 284 275 283 288 284 273 250 257 262 248 256 268 282 293 311 335 333 324
266 262 243 217 196 188 189 191 195 201 228 288 323 304 249 213 169 164 77 78 303 316 353 330 165 192 255 9 17 57 101 207 203 292 353 36 93 25 107 134 133 164 247 191 169 211 244 238 152 117 132 141 145 145 142 169 254 233 200 209 245 249 221 235 283 327 296 282 307 302 289 270 265 272 284 279 240 269 287 290 306 337 341 323 338 355 347 331
267 258 240 214 193 188 189 195 216 216 229 288 336 35 125 146 165 138 62 64 326 311 314 273 234 196 196 59 342 5 154 264 229 266 351 53 138 60 30 133 145 215 225 159 146 236 261 245 135 129 153 155 169 204 185 184 237 292 228 215 231 247 239 248 309 350 341 322 313 344 323 289 250 252 294 308 300 299 345 14 352 2 10 2 3 1 353 346
263 249 233 208 187 181 178 190 227 201 222 278 205 152 120 135 141 104 69 55 333 301 326 295 145 298 235 336 337 109 96 317 273 321 12 52 134 145 62 277 338 238 189 152 159 237 270 343 99 142 163 166 190 242 225 175 162 302 250 209 218 232 233 246 285 354 288 265 258 73 29 277 299 3 286 290 300 312 3 24 8 9 11 11 12 3 359 356
260 237 219 199 181 171 163 186 202 173 186 255 199 189 177 114 118 110 59 34 345 291 336 281 20 63 237 305 357 94 306 314 8 29 38 39 353 91 171 270 301 239 182 135 305 257 166 77 54 112 133 158 201 250 225 161 141 252 240 136 144 160 182 199 183 204 243 290 280 153 151 266 293 271 267 285 316 335 13 21 9 8 8 10 13 9 8 5
267 220 203 192 178 170 157 75 177 175 186 205 188 195 195 139 221 109 75 44 323 135 48 282 227 75 309 341 39 66 294 324 47 310 343 32 347 51 345 242 191 215 201 145 259 270 142 159 189 154 130 191 214 241 202 165 161 246 194 117 120 132 152 151 137 214 297 343 292 209 148 250 279 265 290 348 6 355 10 16 6 4 5 8 11 11 10 8
329 195 188 179 172 171 159 77 162 188 200 167 180 203 205 235 353 59 76 113 285 40 208 294 179 306 339 3 21 18 331 347 41 287 330 37 25 52 351 223 147 194 246 164 234 269 55 198 196 156 164 216 219 293 211 177 203 218 126 94 63 69 69 80 112 145 50 332 278 234 164 194 278 292 351 22 20 354 354 8 5 359 4 8 8 9 9 9
48 148 166 164 164 164 146 89 127 176 198 197 196 198 199 301 49 61 40 246 290 307 237 345 268 327 13 14 330 347 21 340 330 323 344 50 346 28 124 183 99 119 288 326 256 266 334 214 190 149 186 193 136 66 38 99 138 127 101 56 28 42 46 48 85 97 61 279 279 247 182 187 275 309 30 32 14 343 336 358 2 358 7 10 7 6 6 8
76 116 143 154 158 159 146 105 109 128 174 172 151 150 135 16 68 88 269 246 227 335 8 27 334 20 43 34 325 339 13 338 334 352 3 355 342 10 59 315 41 51 349 343 295 292 321 207 216 246 156 123 100 65 39 53 83 94 72 37 353 331 19 20 352 52 105 252 274 267 200 182 238 254 52 48 21 0 359 5 0 1 5 5 4 4 5 7
89 112 125 142 153 152 135 147 138 108 132 143 126 92 77 40 26 144 271 298 346 347 24 337 326 26 36 25 322 311 333 334 358 46 32 357 346 320 332 229 273 346 336 322 317 320 295 231 253 339 117 121 105 64 19 18 45 63 62 59 18 328 352 339 304 308 223 244 241 206 197 192 214 155 49 45 31 15 17 17 5 5 3 359 2 2 3 7
96 116 114 123 145 135 104 125 142 121 145 146 93 53 75 75 267 229 274 325 347 331 9 275 323 6 0 354 336 303 308 309 0 39 228 342 5 314 326 43 145 327 293 283 331 343 325 311 13 44 312 105 134 145 304 326 73 134 172 126 123 335 318 283 278 288 276 271 259 180 175 244 228 103 74 54 44 23 21 26 17 14 6 357 0 2 5 9
95 119 117 114 132 135 116 111 115 155 162 129 74 64 72 110 238 217 283 284 277 330 12 60 330 356 23 8 321 314 6 317 341 9 331 359 21 341 345 356 359 93 179 310 326 346 319 311 329 104 300 3 180 182 167 140 133 174 174 131 145 177 235 255 253 267 282 294 292 272 187 227 185 129 134 100 60 34 28 22 15 17 12 2 4 10 11 11
93 110 115 107 110 132 146 130 15 171 161 91 61 76 119 233 249 200 258 264 290 329 321 310 6 8 0 343 321 341 65 289 328 3 354 6 17 335 343 330 337 72 90 342 311 226 279 272 258 296 335 138 195 202 130 118 108 224 137 105 179 197 189 234 231 222 270 321 291 265 234 210 117 130 148 120 59 33 27 18 15 13 8 9 12 14 13 9
96 99 93 82 76 99 145 161 213 171 148 84 64 84 183 220 235 168 217 286 11 322 329 352 34 29 341 324 335 359 28 252 326 352 328 308 255 269 239 261 305 29 83 96 273 320 325 283 267 38 347 165 163 201 222 222 267 135 119 213 230 182 144 237 283 302 62 304 268 265 247 298 74 153 111 35 20 19 16 9 15 12 7 12 13 12 9 6
96 90 75 50 39 63 120 122 151 152 112 80 87 198 219 207 170 178 208 339 210 77 37 9 347 16 347 320 320 333 340 303 344 356 318 319 72 238 292 293 215 219 118 146 276 274 207 289 304 97 173 240 154 212 292 296 135 144 212 255 251 166 102 105 278 334 15 253 269 311 251 277 306 249 0 14 7 7 6 0 3 5 8 12 9 9 7 4
110 93 68 31 23 49 86 83 139 131 83 73 92 232 220 130 135 207 207 135 242 40 63 53 290 356 58 304 295 305 332 333 346 358 325 334 43 129 65 0 92 214 284 319 309 288 128 296 307 120 168 311 41 37 330 324 43 153 234 296 16 268 302 6 327 303 309 277 283 284 263 275 227 282 352 7 3 359 357 355 357 358 4 4 0 5 4 3
115 87 43 11 16 37 54 80 128 85 67 80 212 239 157 281 300 264 240 315 101 77 76 212 267 355 5 186 251 296 336 326 330 359 358 343 10 71 65 2 359 332 286 263 237 261 127 227 287 244 166 12 26 43 339 307 328 42 1 342 34 181 230 262 226 262 284 277 281 278 273 282 121 332 354 4 3 358 351 354 356 352 359 359 354 1 2 2
91 74 339 350 13 18 26 68 72 58 65 145 205 192 258 277 281 228 243 257 124 88 105 193 198 324 318 296 235 304 337 269 272 335 298 313 349 33 41 24 354 334 307 286 208 266 41 164 262 283 264 344 351 330 272 290 322 13 15 347 335 302 273 296 241 175 268 284 295 298 285 267 121 40 30 14 4 1 352 353 350 343 353 359 354 359 2 2
80 64 306 344 7 349 42 58 50 64 96 129 187 192 268 169 115 340 297 265 124 122 146 149 151 174 244 327 311 262 308 298 258 244 287 317 1 28 37 34 313 318 334 2 354 313 339 193 254 296 316 322 302 263 240 215 152 102 58 340 324 306 349 323 294 279 88 279 273 290 289 272 137 74 63 28 2 3 355 350 346 341 346 356 355 355 359 4
76 74 309 358 4 352 64 60 7 86 109 94 75 171 354 88 102 347 319 1 60 49 52 93 114 135 167 237 269 219 283 287 237 127 256 246 60 34 349 299 278 271 31 354 324 247 165 126 282 286 286 290 289 285 267 201 136 103 90 37 345 35 87 335 284 305 316 276 208 251 277 254 157 272 33 29 351 345 352 351 349 343 342 350 352 349 352 2
89 154 347 11 359 21 76 59 329 20 55 275 3 91 2 83 110 95 349 17 46 53 22 48 144 99 169 217 251 211 239 232 195 154 216 246 65 22 311 317 337 6 31 2 316 241 150 97 358 293 282 288 294 299 270 185 95 65 31 34 46 55 127 205 246 299 289 275 288 258 263 235 166 241 83 49 3 343 346 354 352 347 346 345 344 346 348 352
119 177 2 9 360 40 98 105 164 23 316 313 36 19 342 57 122 39 14 3 25 109 74 44 135 49 215 179 157 219 239 273 265 82 96 255 113 211 328 11 38 36 13 315 273 329 298 149 28 340 324 326 336 341 313 318 29 57 198 20 28 4 331 271 273 359 258 295 351 291 274 305 149 179 31 33 8 356 354 358 353 348 349 346 340 345 347 344
93 76 301 360 21 58 110 159 149 138 265 19 48 8 348 12 92 26 53 51 31 139 122 26 281 118 97 97 295 281 295 258 267 354 36 327 285 323 352 24 45 34 317 264 252 284 229 219 78 31 314 307 309 309 300 313 336 345 143 54 29 357 333 304 313 311 244 350 4 290 277 303 190 70 14 5 5 0 353 352 349 345 350 346 338 341 346 346
110 81 309 343 20 50 75 131 103 110 140 103 64 9 4 7 318 328 91 74 22 75 91 12 309 52 40 17 353 320 329 300 258 346 22 309 299 331 340 15 34 356 326 304 302 99 115 319 91 137 179 218 247 262 275 298 307 299 312 2 40 286 286 108 119 257 261 317 310 255 281 309 304 355 6 358 6 2 349 348 346 341 344 344 337 335 343 350
95 111 96 2 5 28 37 21 38 71 123 117 100 43 353 334 318 343 61 84 151 41 73 70 36 43 9 348 12 330 313 322 312 340 44 318 299 315 329 25 16 342 343 340 353 71 78 325 354 117 188 218 246 270 279 289 279 282 306 323 330 324 63 88 122 256 294 293 268 289 343 312 303 342 0 352 2 1 350 349 343 333 335 338 333 330 339 350
63 143 172 123 109 37 33 21 42 66 55 72 122 118 18 6 2 10 357 356 8 357 44 53 26 25 327 291 47 355 317 334 337 315 354 14 342 330 335 349 341 347 6 5 350 69 102 261 263 310 277 250 253 267 278 300 278 231 265 292 304 337 62 95 188 262 274 245 267 303 319 302 299 332 350 351 360 356 349 344 334 327 328 329 326 329 341 348
80 120 348 23 94 138 169 317 66 72 49 47 84 66 63 48 17 353 304 15 9 354 27 33 344 348 337 301 111 78 337 352 328 296 284 3 349 358 349 326 317 357 26 17 345 70 109 266 275 313 301 270 250 258 277 306 262 226 253 300 317 328 335 93 268 289 287 262 268 292 303 297 298 325 336 349 358 349 342 335 330 331 330 326 324 330 339 341
129 141 151 59 72 80 17 0 53 70 37 31 62 49 82 89 16 344 5 37 17 346 20 30 311 322 345 33 66 57 338 1 283 267 238 5 334 239 135 281 267 349 10 15 335 20 58 325 316 21 329 285 243 309 319 269 241 222 298 344 354 347 340 14 358 327 313 293 289 297 297 292 302 359 333 338 349 342 336 331 331 333 326 321 320 326 332 335
95 121 134 107 65 353 359 9 51 78 37 14 35 1 37 74 46 353 22 27 54 51 19 328 303 314 5 37 35 9 317 283 256 255 238 214 241 221 213 215 193 319 345 9 345 5 43 346 344 45 359 283 230 11 327 292 217 145 4 355 356 2 4 359 342 326 312 307 309 307 297 300 334 337 321 316 336 341 332 329 331 325 318 315 315 324 327 327
98 83 102 105 78 353 0 8 35 71 59 3 9 326 349 27 332 144 123 28 35 63 20 302 308 318 23 9 7 329 287 274 258 261 242 191 186 99 48 41 69 72 277 59 32 22 85 38 347 34 346 278 287 340 329 15 68 355 327 350 333 338 5 347 333 317 302 299 306 300 301 327 337 335 324 318 329 336 329 331 329 318 312 312 316 321 321 325